Location: ???????
(54.6339°N, 39.4245°E)
Time: 02:13:00
(UTC+00:00)

Cosmos 2360 Rocket - Pass Details

Date: 19 May 2025
Orbit: 834 x 842 km, 71.0° (Epoch: 14 June)

Event Time Altitude Azimuth Distance (km) Brightness Sun altitude
Rises 21:26:48 0° 325° (NW) 3,396 6.2 -15.4°
Reaches altitude 10° 21:29:18 10° 320° (NW) 2,457 5.3 -15.4°
Maximum altitude 21:34:43 51° 247° (WSW) 1,045 2.5 -15.3°
Enters shadow 21:37:56 24° 182° (S) 1,683 3.1 -15.3°
